Location: Roswell
(33.3943°N, 104.5230°W)
Time: 18:14:15
(UTC+00:00)

Vanguard 2 Rocket - Visible Passes

Search period start: 13 November 2024 00:00
Search period end: 23 November 2024 00:00
Orbit: 553 x 3297 km, 32.9° (Epoch: 12 November)

Date Brightness Start Highest point End Pass type
(mag) Time Alt. Az. Time Alt. Az. Time Alt. Az.
13 Nov 10.2 11:17:17 10° S 11:26:35 27° SE 11:39:39 10° E visible
14 Nov 10.4 10:17:28 10° SSE 10:22:57 15° SE 10:29:40 10° E visible
14 Nov 9.9 12:24:01 10° SW 12:35:44 50° SE 12:53:33 10° ENE visible
15 Nov 10.0 11:21:43 10° SSW 11:31:21 35° SE 11:45:58 10° E visible
16 Nov 10.0 10:20:33 10° S 10:27:39 21° SE 10:37:31 10° E visible
16 Nov 9.5 12:29:18 10° SW 12:40:50 60° SSE 12:59:09 10° ENE visible
17 Nov 9.6 11:26:39 10° SSW 11:36:16 45° SE 11:51:50 10° ENE visible
18 Nov 9.5 10:26:38 17° S 10:32:27 29° SE 10:44:07 10° E visible
18 Nov 9.3 12:34:51 10° WSW 12:46:08 70° SSE 13:04:39 10° ENE visible
19 Nov 9.9 09:27:20 15° SE 09:29:11 16° SE 09:35:19 10° E visible
19 Nov 9.1 11:32:51 14° SW 11:41:23 55° SSE 11:57:27 10° ENE visible
20 Nov 9.0 10:33:29 28° S 10:37:24 38° SE 10:50:07 10° E visible
20 Nov 9.1 12:40:34 10° WSW 12:51:36 79° SSE 13:10:07 10° E visible
21 Nov 9.5 09:34:01 23° SE 09:34:02 23° SE 09:42:27 10° E visible
21 Nov 8.8 11:39:32 21° SW 11:46:42 66° SSE 12:02:57 10° ENE visible
22 Nov 8.5 10:40:00 41° S 10:42:32 49° SSE 10:55:49 10° ENE visible
22 Nov 9.0 12:46:25 10° WSW 12:57:12 85° S 13:15:35 10° E visible
